EW9766 Weather Reports


time (UTC)temp
F
wind
direction
speed
knots
gust
knots
rain 1hr
in
rain 24hr
in
rain mn
in
humidity
%
barometer
mb
20260506043035 53 193 2.6 3.5 0.00 0.00 0.00 80 1015.8
20260506041535 54 309 0.0 2.6 0.00 0.00 0.00 78 1015.7
20260506040043 55 305 0.0 1.7 0.00 0.00 0.00 76 1015.5
20260506034607 57 129 0.0 1.7 0.00 0.00 0.00 73 1015.2
20260506033040 58 112 0.0 1.7 0.00 0.00 0.00 70 1015.0
20260506031530 60 219 0.0 3.5 0.00 0.00 0.00 66 1014.8
20260506030031 64 261 0.9 2.6 0.00 0.00 0.00 62 1014.6
20260506024531 65 318 0.9 4.3 0.00 0.00 0.00 60 1014.5
20260506023107 67 339 2.6 6.1 0.00 0.00 0.00 58 1014.4
20260506021532 68 1 4.3 7.0 0.00 0.00 0.00 57 1014.4
20260506020034 69 5 4.3 8.7 0.00 0.00 0.00 56 1014.2
20260506014533 70 357 6.1 9.6 0.00 0.00 0.00 54 1014.1
20260506013032 72 5 7.0 10.4 0.00 0.00 0.00 52 1014.0
20260506010107 73 354 5.2 8.7 0.00 0.00 0.00 51 1014.0
20260506000031 73 348 6.1 9.6 0.00 0.00 0.00 53 1014.1
20260505234534 74 351 6.1 9.6 0.00 0.00 0.00 53 1014.2
20260505233032 74 349 6.1 9.6 0.00 0.00 0.00 52 1014.3
20260505231531 73 354 6.1 9.6 0.00 0.00 0.00 52 1014.3
20260505230108 74 8 6.1 9.6 0.00 0.00 0.00 52 1014.3
20260505224607 74 348 4.3 7.0 0.00 0.00 0.00 51 1014.5
20260505214535 74 345 4.3 9.6 0.00 0.00 0.00 51 1014.8
20260505211531 73 338 4.3 9.6 0.00 0.00 0.00 52 1014.9
20260505204536 73 341 3.5 7.8 0.00 0.00 0.00 51 1015.2
20260505201532 72 330 4.3 7.8 0.00 0.00 0.00 53 1015.2
20260505194530 71 355 4.3 8.7 0.00 0.00 0.00 54 1015.3
20260505193032 70 347 4.3 10.4 0.00 0.00 0.00 54 1015.4
20260505191531 70 330 3.5 7.0 0.00 0.00 0.00 55 1015.5
20260505190035 70 355 4.3 7.8 0.00 0.00 0.00 55 1015.6
20260505184534 68 20 3.5 7.8 0.00 0.00 0.00 57 1015.6
20260505181530 67 14 4.3 9.6 0.00 0.00 0.00 58 1015.6
20260505180035 66 7 5.2 9.6 0.00 0.00 0.00 59 1015.6
20260505174532 66 8 5.2 9.6 0.00 0.00 0.00 59 1015.5
20260505173029 65 18 4.3 7.8 0.00 0.00 0.00 61 1015.4
20260505170033 65 342 5.2 7.8 0.00 0.00 0.00 62 1015.4
20260505164535 63 341 5.2 8.7 0.00 0.00 0.00 64 1015.3
20260505161605 62 354 4.3 7.8 0.00 0.00 0.00 65 1015.3
20260505153030 60 340 2.6 4.3 0.00 0.00 0.00 68 1015.2
20260505151533 60 342 2.6 4.3 0.00 0.00 0.00 69 1015.1
20260505124531 49 138 4.3 7.0 0.00 0.00 0.00 81 1014.2
20260505123031 49 140 3.5 5.2 0.00 0.00 0.00 81 1014.1
20260505121534 49 142 3.5 6.1 0.00 0.00 0.00 81 1014.1
20260505120134 50 137 3.5 5.2 0.00 0.00 0.00 80 1014.2
20260505113032 50 135 3.5 5.2 0.00 0.00 0.00 80 1014.1
20260505111607 50 135 3.5 6.1 0.00 0.00 0.00 80 1014.0
20260505101531 51 106 2.6 3.5 0.00 0.00 0.00 77 1013.8
20260505100107 51 91 3.5 5.2 0.00 0.00 0.00 76 1013.6
20260505094535 52 80 2.6 5.2 0.00 0.00 0.00 74 1013.6
20260505093037 53 136 4.3 7.0 0.00 0.00 0.00 73 1013.5
20260505091634 53 139 5.2 7.8 0.00 0.00 0.00 72 1013.4
20260505084532 54 144 5.2 8.7 0.00 0.00 0.00 72 1013.3
20260505083033 54 138 5.2 7.8 0.00 0.00 0.00 71 1013.4
20260505081535 54 136 5.2 8.7 0.00 0.00 0.00 71 1013.3
20260505080031 54 135 4.3 7.8 0.00 0.00 0.00 71 1013.4
20260505074530 54 135 4.3 6.1 0.00 0.00 0.00 71 1013.4
20260505073031 55 139 4.3 7.8 0.00 0.00 0.00 71 1013.3
20260505071530 56 144 4.3 7.0 0.00 0.00 0.00 73 1013.2
20260505070031 56 98 0.9 3.5 0.00 0.00 0.00 75 1013.1
20260505064605 55 118 0.9 4.3 0.00 0.00 0.00 75 1013.2
20260505063029 55 106 1.7 3.5 0.00 0.00 0.00 73 1013.2
20260505061536 55 115 1.7 3.5 0.00 0.00 0.00 71 1013.2
20260505060107 57 105 0.9 3.5 0.00 0.00 0.00 68 1013.2